Bookmark and Share
Track history (hours):
 

MiSS Sylvia

More information available from US FCC via Universal Licensing System and Coast Guard Vessel Documentation Center.

Last reported at 2014-Apr-22 22:33 UTC. Time now 2014-Apr-23 09:49 UTC.
Position N 30°02' W 090°28'.

Length 20 m; draft 3.4 m.

Type: Towing. MMSI: 367366340.

NotesDate/timePositionNaut miles runAvg speedWind from/ knotsBaromVisibWave heightAir tempDewpointWater temp
2014-Apr-22 22:33N 30°02' W 090°28'5 0.5
2014-Apr-22 12:33N 30°03' W 090°34'7 7.0
2014-Apr-22 11:33N 30°02' W 090°42'6 5.0
2014-Apr-22 10:25N 29°60' W 090°48'2 2.0
2014-Apr-22 09:24N 30°01' W 090°46'3 3.9
2014-Apr-22 08:33N 30°01' W 090°42'4 3.8
2014-Apr-22 07:33N 30°03' W 090°38'3 3.4
2014-Apr-22 06:33N 30°03' W 090°34'0 0.1
2014-Apr-22 05:33N 30°03' W 090°34'0 0.0
2014-Apr-22 04:33N 30°03' W 090°34'0 0.0
2014-Apr-22 03:33N 30°03' W 090°34'0 0.2
2014-Apr-22 02:33N 30°03' W 090°34'1 0.6
2014-Apr-22 01:33N 30°03' W 090°34'2 1.7
2014-Apr-22 00:33N 30°03' W 090°32'2 1.6
2014-Apr-21 23:33N 30°03' W 090°30'2 1.8
2014-Apr-21 22:33N 30°02' W 090°28'1 0.1
2014-Apr-21 13:13N 30°03' W 090°28'0 0.6
2014-Apr-21 12:33N 30°02' W 090°28'1 0.8
2014-Apr-21 11:33N 30°02' W 090°29'0 0.1
2014-Apr-21 10:33N 30°01' W 090°29'0 0.0
2014-Apr-21 09:33N 30°01' W 090°29'0 0.1
2014-Apr-21 08:33N 30°01' W 090°29'0 0.2
2014-Apr-21 07:33N 30°02' W 090°29'0 0.0
2014-Apr-21 06:33N 30°01' W 090°29'1 1.3
2014-Apr-21 05:33N 30°03' W 090°28'1 1.4
2014-Apr-21 04:33N 30°03' W 090°30'9 8.9
2014-Apr-21 03:33N 30°03' W 090°40'9 8.5
2014-Apr-21 02:30N 29°59' W 090°50'1 0.0
2014-Apr-19 18:06N 29°60' W 090°50'3 1.5
2014-Apr-19 16:03N 30°00' W 090°47'0 0.0
2014-Apr-19 15:23N 30°00' W 090°47'2 2.3
2014-Apr-19 14:33N 30°01' W 090°44'6 2.4
2014-Apr-19 12:08N 30°02' W 090°38'2 2.6
2014-Apr-19 11:33N 30°02' W 090°36'3 2.5
2014-Apr-19 10:33N 30°03' W 090°33'3 2.4
2014-Apr-19 09:31N 30°03' W 090°30'1 0.2
2014-Apr-19 02:33N 30°03' W 090°32'2 2.2
2014-Apr-19 01:33N 30°03' W 090°34'4 3.2
2014-Apr-19 00:28N 30°03' W 090°30'2 2.1
2014-Apr-18 23:23N 30°01' W 090°29'0 0.0
2014-Apr-18 22:13N 30°02' W 090°29'1 0.4
2014-Apr-18 19:25N 30°03' W 090°29'0 0.1
2014-Apr-18 18:21N 30°02' W 090°29'4 5.6
2014-Apr-18 17:33N 30°03' W 090°34'19 0.5
2014-Apr-17 02:13N 30°07' W 090°55'16 1.7
2014-Apr-16 16:29N 30°02' W 090°37'2 2.5
2014-Apr-16 15:33N 30°03' W 090°35'0 0.4
2014-Apr-16 14:33N 30°03' W 090°34'3 2.5
2014-Apr-16 13:33N 30°03' W 090°31'3 2.6
2014-Apr-16 12:33N 30°02' W 090°28'1 0.8
2014-Apr-16 11:33N 30°03' W 090°29'0 0.0
2014-Apr-16 10:33N 30°03' W 090°29'3 3.2
2014-Apr-16 09:33N 29°60' W 090°27'4 3.6
2014-Apr-16 08:33N 29°58' W 090°24'4 3.7
2014-Apr-16 07:20N 29°56' W 090°19'0 0.2
2014-Apr-16 04:31N 29°56' W 090°19'6 5.9
2014-Apr-16 03:33N 29°59' W 090°24'4 4.1
2014-Apr-16 02:33N 30°01' W 090°29'1 1.3
2014-Apr-16 01:33N 30°03' W 090°28'1 1.3
2014-Apr-16 00:33N 30°01' W 090°29'0 0.0
2014-Apr-15 23:33N 30°01' W 090°29'0 0.4
2014-Apr-15 22:31N 30°02' W 090°28'2 1.8
2014-Apr-15 21:19N 30°03' W 090°30'  
2014-Apr-13 10:28N 30°00' W 090°47'2 2.6
2014-Apr-13 09:33N 30°01' W 090°44'2 2.3
2014-Apr-13 08:33N 30°02' W 090°42'2 2.4
2014-Apr-13 07:33N 30°03' W 090°40'3 2.7
2014-Apr-13 06:33N 30°02' W 090°37'2 2.0
2014-Apr-13 05:33N 30°03' W 090°35'3 2.6
2014-Apr-13 04:33N 30°03' W 090°32'2 2.2
2014-Apr-13 03:33N 30°03' W 090°29'2 1.6
2014-Apr-13 02:33N 30°01' W 090°29'0 0.1
2014-Apr-13 01:33N 30°01' W 090°29'0 0.1
2014-Apr-13 00:33N 30°01' W 090°29'0 0.0
2014-Apr-12 23:33N 30°01' W 090°29'2 2.3
2014-Apr-12 22:33N 30°03' W 090°30'  

Dump ship's entire track history

sailing weather and tide predictions

MiSS Sylvia — WDE5412 — position and weather